Home   Weather   Brookline   Past weeks
Flag for USA

Past Weather in Brookline, Massachusetts, USA — Yesterday and Last 2 Weeks

Now
67 °F

Passing clouds.


Feels Like: 67 °F
Forecast: 75 / 64 °F
Wind: 8 mph from Northwest

Location: Logan International Airport

Current Time: Jun 17, 2019 at 5:29:49 am

Latest Report: Jun 17, 2019 at 4:54 am


Visibility: 10 mi

Pressure: 29.86 "Hg

Humidity: 87%

Dew Point: 63 °F

Location of BrooklineLocation

Past Weather in Brookline — Graph

°F

Brookline Temperature Yesterday

Maximum temperature yesterday: 71 °F (at 2:54 am)
Minimum temperature yesterday: 63 °F (at 6:15 pm)
Average temperature yesterday: 67 °F

High & Low Weather Summary for the Past Weeks

 TemperatureHumidityPressure
High83 °F (Jun 5, 1:54 pm)96% (Jun 2, 4:28 am)30.35 "Hg (Jun 2, 4:28 am)
Low53 °F (Jun 2, 4:28 am)19% (Jun 3, 3:54 pm)29.62 "Hg (Jun 6, 4:54 am)
Average66 °F63%29.93 "Hg
* Reported Jun 2 3:54 am — Jun 17 3:54 am, Brookline. Weather by CustomWeather, © 2019

Note: Actual official high and low records may vary slightly from our data, if they occured in-between our weather recording intervals... More about our weather records

Advertising

Brookline Weather History for the Previous 24 Hours

Scroll right to see more
 ConditionsComfort  
Time TempWeatherWind HumidityBarometerVisibility
3:54 am
Mon, Jun 17
66 °FPartly cloudy.8 mph93%29.83 "Hg10 mi
2:54 am67 °FPartly cloudy.6 mph90%29.82 "Hg10 mi
2:32 am67 °FPartly cloudy.6 mph90%29.82 "Hg9 mi
1:54 am68 °FMostly cloudy.6 mph90%29.82 "Hg8 mi
12:54 am66 °FFog.No wind93%29.81 "Hg5 mi
11:54 pm
Sun, Jun 16
65 °FFog.3 mph94%29.81 "Hg4 mi
10:54 pm64 °FFog.5 mph94%29.82 "Hg4 mi
9:54 pm66 °FLight rain. Low clouds.No wind90%29.83 "Hg7 mi
8:54 pm66 °FOvercast.No wind90%29.82 "Hg10 mi
7:54 pm66 °FLight rain. Fog.6 mph90%29.81 "Hg2 mi
7:40 pm65 °FFog.No wind94%29.82 "Hg2 mi
6:54 pm63 °FLight rain. Fog.5 mph90%29.81 "Hg2 mi
6:15 pm63 °FLight rain. Fog.10 mph90%29.81 "Hg3 mi
5:54 pm64 °FCloudy.9 mph87%29.81 "Hg3 mi
5:33 pm64 °FMostly cloudy.6 mph90%29.83 "Hg3 mi
4:54 pm64 °FLight rain. Fog.8 mph90%29.84 "Hg3 mi
3:54 pm67 °FLight rain. Fog.6 mph87%29.85 "Hg6 mi
2:54 pm68 °FLight rain. Mostly cloudy.7 mph87%29.85 "Hg8 mi
1:54 pm71 °FLight rain. Cloudy.5 mph81%29.86 "Hg10 mi
12:54 pm70 °FMostly cloudy.5 mph81%29.88 "Hg10 mi
11:54 am70 °FLight rain. Fog.No wind81%29.88 "Hg7 mi
10:54 am70 °FMostly cloudy.8 mph79%29.88 "Hg10 mi
9:54 am71 °FMostly cloudy.8 mph71%29.88 "Hg10 mi
8:54 am70 °FCloudy.13 mph73%29.89 "Hg10 mi
7:54 am68 °FMostly cloudy.13 mph76%29.90 "Hg10 mi
6:54 am68 °FMostly cloudy.9 mph76%29.90 "Hg10 mi
5:54 am67 °FMore clouds than sun.13 mph79%29.88 "Hg10 mi
Weather by CustomWeather, © 2019

See weather overview